Flag for Canada Weather past 2 weeks in Quesnel, British Columbia, Canada

Now
41 °F

Overcast.


Feels Like: 41 °F
Forecast: 40 / 53 °F
Wind: No wind

Location: Quesnel Airport


UV Index: 3 (Moderate)

Visibility: 9 mi


Pressure: 29.96 "Hg

Humidity: 70%

Dew point: 32 °F

Location of QuesnelLocation

Historic Weather in Quesnel

°F

Quesnel temperature yesterday

Maximum temperature yesterday: 54 °F (at 5:00 PM)
Minimum temperature yesterday: 27 °F (at 6:00 AM)
Average temperature yesterday: 40 °F

Past Weeks' High & Low Weather Summary

 TemperatureHumidityPressure
High63 °F (Apr 14, 5:00 PM)100% (Apr 11, 5:00 AM)30.46 "Hg (Apr 11, 5:00 AM)
Low21 °F (Apr 13, 5:00 AM)12% (Apr 13, 6:00 PM)29.59 "Hg (Apr 17, 8:00 PM)
Average41 °F65%29.98 "Hg
* Reported Apr 5 3:00 AM — Apr 20 3:00 AM, Quesnel, Weather by CustomWeather, © 2014

Note: Actual official high and low records may vary slightly from our data, if they occured in-between our weather recording intervals... More about our weather records

Advertising

Historic Weather Conditions — Data for Previous 24 hours

 ConditionsComfort  
Time TempWeatherWind HumidityBarometerVisibility
3:00 AM
Apr 20
41 °FOvercast.8 mph70%29.93 "Hg9 mi
2:00 AM41 °FOvercast.3 mph70%29.90 "Hg9 mi
1:00 AM45 °FOvercast.3 mph61%29.85 "Hg9 mi
12:00 AM45 °FOvercast.2 mph61%29.81 "Hg9 mi
11:00 PM
Apr 19
46 °FOvercast.6 mph57%29.78 "Hg9 mi
10:00 PM48 °FOvercast.9 mph54%29.74 "Hg9 mi
9:00 PM48 °FOvercast.7 mph54%29.72 "Hg9 mi
8:00 PM50 °FOvercast.8 mph47%29.70 "Hg9 mi
7:00 PM52 °FPartly sunny.12 mph44%29.69 "Hg9 mi
6:00 PM54 °FSunny.13 mph41%29.68 "Hg9 mi
5:00 PM54 °FSunny.9 mph47%29.69 "Hg9 mi
4:00 PM50 °FOvercast.6 mph54%29.70 "Hg9 mi
3:00 PM46 °FMostly cloudy.9 mph66%29.70 "Hg9 mi
2:00 PM43 °FBroken clouds.7 mph81%29.72 "Hg9 mi
1:53 PM43 °FPartly sunny.8 mph76%29.72 "Hg9 mi
1:00 PM41 °FLight rain. Mostly cloudy.9 mph81%29.72 "Hg9 mi
12:00 PM43 °FLight rain. Mostly cloudy.18 mph71%29.74 "Hg9 mi
11:57 AM43 °FLight rain. Mostly cloudy.18 mph66%29.73 "Hg9 mi
11:00 AM41 °FMostly cloudy.3 mph70%29.73 "Hg9 mi
10:00 AM39 °FPartly sunny.No wind81%29.74 "Hg9 mi
9:00 AM37 °FOvercast.3 mph81%29.74 "Hg9 mi
8:00 AM32 °FPassing clouds.2 mph93%29.76 "Hg9 mi
7:00 AM28 °FPassing clouds.2 mph100%29.78 "Hg9 mi
6:00 AM27 °FClear.No wind100%29.80 "Hg9 mi
5:00 AM28 °FClear.No wind93%29.83 "Hg9 mi
4:00 AM28 °FClear.No wind93%29.85 "Hg9 mi
Weather by CustomWeather, © 2014

See weather overview